User: anonymous   Login
Location: *
(2.5500°S, 65.9667°W)
Time: 07:12:42
(UTC+00:00)
Language:

Cosmos 1606 Rocket - Orbit

View from above orbital plane
View from above orbital plane
View from above satellite
View from above satellite

Ground track
Ground track

The orbit data is extracted from the following two-line orbital elements,

1 15370U 84111B   22023.82328529  .00000138  00000-0  13759-4 0  9990
2 15370  82.5144 230.8399 0019338 268.3197  91.5803 14.83804915992421
Epoch (UTC): 23 January 2022 19:45:31
Eccentricity: 0.0019338
inclination: 82.5144°
perigee height: 604 km
apogee height: 631 km
right ascension of ascending node: 230.8399°
argument of perigee: 268.3197°
revolutions per day: 14.83804915
mean anomaly at epoch: 91.5803°
orbit number at epoch: 99242

The dashed part of the orbit path shows where the satellite is in the earth's shadow,  

DLR